Location: Coupvray
(48.8929°N, 2.7967°E)
Time: 12:55:01
(UTC+00:00)

Altair 2 - Pass Details

Date: 19 January 2021
Orbit: 837 x 949 km, 90.2° (Epoch: 28 February)

Event Time Altitude Azimuth Distance (km) Brightness Sun altitude
Rises 04:19:57 0° 19° (NNE) 3,438 11.2 -31.4°
Reaches altitude 10° 04:24:57 10° 58° (ENE) 2,522 10.9 -30.6°
Maximum altitude 04:26:02 11° 69° (ENE) 2,491 11.0 -30.4°
Drops below altitude 10° 04:27:07 10° 81° (E) 2,533 11.1 -30.2°
Sets 04:32:10 0° 119° (ESE) 3,499 11.7 -29.4°
